Location: Newark
(43.9494°N, 6.8108°E)
Time: 20:19:30
(UTC+00:00)

Courier 1B - Visible Passes

Search period start: 17 October 2019 00:00
Search period end: 27 October 2019 00:00
Orbit: 962 x 1209 km, 28.3° (Epoch: 17 October)

Date Brightness Start Highest point End Pass type
(mag) Time Alt. Az. Time Alt. Az. Time Alt. Az.
17 Oct 9.3 18:43:25 10° SSW 18:48:43 20° SSE 18:50:03 19° SSE visible
17 Oct 10.0 20:36:08 10° SW 20:36:56 13° SW 20:36:56 13° SW visible
18 Oct 9.5 17:50:13 10° SSW 17:55:06 18° SSE 17:59:38 11° SE visible
18 Oct 9.4 19:42:22 10° SW 19:46:31 22° SSW 19:46:31 22° SSW visible
19 Oct 9.2 18:48:44 10° SW 18:54:36 23° S 18:56:05 22° SSE visible
19 Oct 10.1 20:42:12 10° WSW 20:42:58 12° SW 20:42:58 12° SW visible
20 Oct 9.4 17:55:14 10° SW 18:00:56 22° S 18:05:38 13° SE visible
20 Oct 9.4 19:48:16 10° SW 19:52:31 22° SSW 19:52:31 22° SSW visible
21 Oct 9.6 17:01:55 10° SSW 17:07:17 20° SSE 17:12:37 10° ESE visible
21 Oct 9.2 18:54:27 10° SW 19:00:29 25° S 19:02:03 23° SSE visible
21 Oct 10.2 20:48:40 10° WSW 20:48:57 11° SW 20:48:57 11° SW visible
22 Oct 9.3 18:00:46 10° SW 18:06:48 24° S 18:11:36 14° SE visible
22 Oct 9.6 19:54:30 10° WSW 19:58:29 20° SSW 19:58:29 20° SSW visible
23 Oct 9.5 17:07:14 10° SW 17:13:07 23° S 17:19:01 10° ESE visible
23 Oct 9.3 19:00:31 10° WSW 19:06:22 23° S 19:08:03 22° S visible
24 Oct 9.4 18:06:40 10° SW 18:12:41 24° S 18:17:37 13° SE visible
24 Oct 9.8 20:01:12 10° SW 20:04:31 16° SSW 20:04:31 16° SSW visible
25 Oct 9.5 17:12:58 10° SW 17:19:00 25° S 17:25:04 10° SE visible
25 Oct 9.5 19:06:56 10° WSW 19:12:12 20° SSW 19:14:08 18° S visible
26 Oct 9.6 18:12:54 10° WSW 18:18:33 22° S 18:23:47 11° SSE visible
26 Oct 10.1 20:09:06 10° SW 20:10:41 11° SSW 20:10:41 11° SSW visible
